When you browse on this site, cookies collect data to enhance your experience and personalize the content and advertising you see.
Visit our Privacy Policy to learn more. By continuing to use the site, you agree to this use of cookies and data.
  • In Hungary
  • List of Countries
  • For 7 days
  • Water Temperature
  • Weather Map
  • News
  • Weather Widgets
  • user-avatar
    Login

    Hourly Weather La Guaira

    Today, 13 November, Wednesday

    Time Temperature Precipitation Wind Pressure Humidity
    00:00 +24°C° 0 mm 3 mps 709 mmHg 94%
    01:00 +24°C° 0 mm 3 mps 709 mmHg 94%
    02:00 +22°C° 0 mm 3 mps 709 mmHg 94%
    03:00 +22°C° 0 mm 3 mps 708 mmHg 92%
    04:00 +23°C° 0 mm 2 mps 708 mmHg 89%
    05:00 +21°C° 0 mm 2 mps 708 mmHg 87%
    06:00 +23°C° 0 mm 2 mps 709 mmHg 84%
    07:00 +25°C° 0 mm 2 mps 709 mmHg 82%
    08:00 +26°C° 0 mm 2 mps 711 mmHg 76%
    09:00 +28°C° 0 mm 2 mps 711 mmHg 71%
    10:00 +29°C° 0 mm 2 mps 711 mmHg 65%
    11:00 +31°C° 0 mm 3 mps 711 mmHg 60%
    12:00 +30°C° 0.4 mm 3 mps 710 mmHg 66%
    13:00 +30°C° 0.4 mm 3 mps 710 mmHg 71%
    14:00 +29°C° 0.4 mm 3 mps 709 mmHg 77%
    15:00 +28°C° 0.5 mm 3 mps 709 mmHg 82%
    16:00 +27°C° 0.5 mm 3 mps 708 mmHg 87%
    17:00 +26°C° 0.5 mm 2 mps 708 mmHg 92%
    18:00 +26°C° 0.2 mm 3 mps 709 mmHg 93%
    19:00 +25°C° 0.2 mm 3 mps 709 mmHg 94%
    20:00 +25°C° 0.2 mm 3 mps 710 mmHg 95%
    21:00 +25°C° 0 mm 3 mps 710 mmHg 95%
    22:00 +24°C° 0 mm 3 mps 710 mmHg 95%
    23:00 +24°C° 0 mm 3 mps 711 mmHg 94%

    Tomorrow, 14 November, Thursday

    Time Temperature Precipitation Wind Pressure Humidity
    00:00 +24°C° 0 mm 2 mps 710 mmHg 94%
    01:00 +23°C° 0 mm 2 mps 710 mmHg 93%
    02:00 +23°C° 0 mm 2 mps 709 mmHg 92%
    03:00 +21°C° 0 mm 2 mps 709 mmHg 92%
    04:00 +21°C° 0 mm 2 mps 709 mmHg 91%
    05:00 +21°C° 0 mm 2 mps 709 mmHg 91%
    06:00 +23°C° 0 mm 2 mps 710 mmHg 90%
    07:00 +24°C° 0 mm 2 mps 710 mmHg 89%
    08:00 +25°C° 0 mm 2 mps 711 mmHg 87%
    09:00 +27°C° 0.1 mm 2 mps 711 mmHg 83%
    10:00 +28°C° 0.1 mm 3 mps 711 mmHg 79%
    11:00 +29°C° 0.1 mm 3 mps 712 mmHg 75%
    12:00 +29°C° 1 mm 3 mps 711 mmHg 79%
    13:00 +28°C° 1 mm 3 mps 710 mmHg 83%
    14:00 +28°C° 1 mm 3 mps 709 mmHg 87%
    15:00 +27°C° 0.8 mm 3 mps 709 mmHg 88%
    16:00 +27°C° 0.8 mm 3 mps 709 mmHg 90%
    17:00 +26°C° 0.8 mm 3 mps 709 mmHg 91%
    18:00 +26°C° 0.3 mm 3 mps 709 mmHg 92%
    19:00 +25°C° 0.3 mm 3 mps 709 mmHg 93%
    20:00 +25°C° 0.3 mm 3 mps 710 mmHg 94%
    21:00 +24°C° 0.2 mm 2 mps 710 mmHg 94%
    22:00 +24°C° 0.2 mm 2 mps 710 mmHg 94%
    23:00 +23°C° 0.2 mm 2 mps 711 mmHg 94%

    Day after tomorrow, 15 November, Friday

    Time Temperature Precipitation Wind Pressure Humidity
    00:00 +23°C° 0 mm 2 mps 710 mmHg 94%
    01:00 +23°C° 0 mm 2 mps 710 mmHg 93%
    02:00 +22°C° 0 mm 1 mps 709 mmHg 93%
    03:00 +22°C° 0.1 mm 1 mps 709 mmHg 93%
    04:00 +22°C° 0.1 mm 1 mps 709 mmHg 93%
    05:00 +22°C° 0.1 mm 1 mps 709 mmHg 93%
    06:00 +23°C° 0 mm 1 mps 710 mmHg 91%
    07:00 +23°C° 0 mm 1 mps 710 mmHg 89%
    08:00 +24°C° 0 mm 1 mps 711 mmHg 88%
    09:00 +26°C° 0 mm 1 mps 711 mmHg 80%
    10:00 +28°C° 0 mm 1 mps 711 mmHg 73%
    11:00 +29°C° 0 mm 1 mps 711 mmHg 65%
    12:00 +29°C° 0 mm 1 mps 711 mmHg 67%
    13:00 +29°C° 0 mm 1 mps 710 mmHg 68%
    14:00 +29°C° 0 mm 1 mps 709 mmHg 70%
    15:00 +28°C° 0.1 mm 1 mps 708 mmHg 74%
    16:00 +27°C° 0.1 mm 1 mps 708 mmHg 78%
    17:00 +26°C° 0.1 mm 1 mps 708 mmHg 81%
    18:00 +25°C° 0.1 mm 1 mps 708 mmHg 85%
    19:00 +24°C° 0.1 mm 1 mps 708 mmHg 88%
    20:00 +23°C° 0.1 mm 1 mps 709 mmHg 92%
    21:00 +23°C° 0 mm 1 mps 709 mmHg 92%
    22:00 +23°C° 0 mm 1 mps 709 mmHg 92%
    23:00 +23°C° 0 mm 1 mps 710 mmHg 92%

    16 November, Saturday

    Time Temperature Precipitation Wind Pressure Humidity
    00:00 +23°C° 0.1 mm 1 mps 709 mmHg 91%
    01:00 +22°C° 0.1 mm 1 mps 709 mmHg 90%
    02:00 +22°C° 0.1 mm 1 mps 708 mmHg 89%
    03:00 +22°C° 0.1 mm 1 mps 708 mmHg 89%
    04:00 +22°C° 0.1 mm 1 mps 708 mmHg 89%
    05:00 +22°C° 0.1 mm 1 mps 708 mmHg 89%
    06:00 +23°C° 0 mm 1 mps 708 mmHg 87%
    07:00 +23°C° 0 mm 1 mps 709 mmHg 86%
    08:00 +24°C° 0 mm 2 mps 709 mmHg 84%
    09:00 +26°C° 0 mm 2 mps 709 mmHg 77%
    10:00 +28°C° 0 mm 2 mps 710 mmHg 69%
    11:00 +29°C° 0 mm 2 mps 710 mmHg 61%
    12:00 +29°C° 0 mm 2 mps 709 mmHg 62%
    13:00 +29°C° 0 mm 3 mps 708 mmHg 63%
    14:00 +29°C° 0 mm 3 mps 708 mmHg 63%
    15:00 +28°C° 0 mm 3 mps 707 mmHg 69%
    16:00 +27°C° 0 mm 3 mps 707 mmHg 76%
    17:00 +26°C° 0 mm 3 mps 707 mmHg 82%
    18:00 +25°C° 0.1 mm 2 mps 707 mmHg 86%
    19:00 +24°C° 0.1 mm 2 mps 707 mmHg 90%
    20:00 +23°C° 0.1 mm 2 mps 707 mmHg 94%
    21:00 +23°C° 0.1 mm 2 mps 708 mmHg 94%
    22:00 +21°C° 0.1 mm 2 mps 708 mmHg 94%
    23:00 +21°C° 0.1 mm 2 mps 708 mmHg 95%

    17 November, Sunday

    Time Temperature Precipitation Wind Pressure Humidity
    00:00 +21°C° 0 mm 2 mps 708 mmHg 91%
    01:00 +20°C° 0 mm 2 mps 708 mmHg 88%
    02:00 +20°C° 0 mm 2 mps 707 mmHg 85%
    03:00 +20°C° 0 mm 2 mps 707 mmHg 80%
    04:00 +19°C° 0 mm 2 mps 707 mmHg 76%
    05:00 +19°C° 0 mm 3 mps 707 mmHg 72%
    06:00 +20°C° 0 mm 2 mps 708 mmHg 70%
    07:00 +21°C° 0 mm 2 mps 708 mmHg 69%
    08:00 +24°C° 0 mm 2 mps 709 mmHg 67%
    09:00 +25°C° 0 mm 2 mps 709 mmHg 63%
    10:00 +27°C° 0 mm 2 mps 709 mmHg 58%
    11:00 +29°C° 0 mm 2 mps 709 mmHg 53%
    12:00 +29°C° 0 mm 2 mps 709 mmHg 54%
    13:00 +29°C° 0 mm 2 mps 708 mmHg 54%
    14:00 +30°C° 0 mm 2 mps 707 mmHg 55%
    15:00 +29°C° 0 mm 2 mps 707 mmHg 60%
    16:00 +27°C° 0 mm 2 mps 706 mmHg 66%
    17:00 +26°C° 0 mm 2 mps 706 mmHg 72%
    18:00 +25°C° 0 mm 2 mps 706 mmHg 74%
    19:00 +23°C° 0 mm 1 mps 707 mmHg 76%
    20:00 +22°C° 0 mm 1 mps 707 mmHg 78%
    21:00 +22°C° 0 mm 1 mps 708 mmHg 81%
    22:00 +22°C° 0 mm 1 mps 708 mmHg 84%
    23:00 +21°C° 0 mm 1 mps 708 mmHg 87%

    18 November, Monday

    Time Temperature Precipitation Wind Pressure Humidity
    00:00 +21°C° 0 mm 1 mps 708 mmHg 88%
    01:00 +22°C° 0 mm 1 mps 708 mmHg 89%
    02:00 +22°C° 0 mm 1 mps 708 mmHg 90%
    03:00 +22°C° 0 mm 1 mps 708 mmHg 91%
    04:00 +22°C° 0 mm 1 mps 708 mmHg 91%
    05:00 +21°C° 0 mm 2 mps 708 mmHg 92%
    06:00 +23°C° 0 mm 2 mps 708 mmHg 88%
    07:00 +24°C° 0 mm 2 mps 709 mmHg 85%
    08:00 +25°C° 0 mm 2 mps 709 mmHg 81%
    09:00 +26°C° 0 mm 2 mps 710 mmHg 76%
    10:00 +28°C° 0 mm 2 mps 710 mmHg 71%
    11:00 +29°C° 0 mm 2 mps 710 mmHg 66%
    12:00 +28°C° 0.3 mm 2 mps 709 mmHg 72%
    13:00 +28°C° 0.3 mm 2 mps 709 mmHg 78%
    14:00 +27°C° 0.3 mm 2 mps 708 mmHg 85%
    15:00 +26°C° 0.3 mm 2 mps 708 mmHg 87%
    16:00 +26°C° 0.3 mm 1 mps 708 mmHg 88%
    17:00 +25°C° 0.3 mm 1 mps 707 mmHg 90%
    18:00 +25°C° 0 mm 1 mps 708 mmHg 91%
    19:00 +24°C° 0 mm 1 mps 708 mmHg 93%
    20:00 +24°C° 0 mm 1 mps 709 mmHg 94%
    21:00 +23°C° 0 mm 1 mps 709 mmHg 94%
    22:00 +23°C° 0 mm 1 mps 709 mmHg 93%
    23:00 +23°C° 0 mm 1 mps 710 mmHg 93%
    Show more